Back to catalog

COSMOS 1934 DEB

AlivePO
NORAD 22919·DEBRIS·🇷🇺 Russia

Launched Mar 22, 1988 from Plesetsk Cosmodrome

Loading…

Next Passes (next 24 hours)

TLE

FreshSource: Space-Track

Epoch: Sep 14, 2026, 09:29 UTC

1 22919U 88023D   26257.39517516  .00000636  00000-0  45756-3 0  9998
2 22919  82.9440 294.5292 0033548  50.7489 324.2146 13.95166563819815

Track COSMOS 1934 DEB in real time with AllMySat

Download on the App Store